GIA172 WIII-WIBB

Flight info

Callsign GIA172
Flight time 1h 17m
Altitude 38000
Route GOMEL T10 OVSET
Aircraft B738/M-SDE2E3FGHIRWY/LB1

Departure

Time 2026-04-29 13:22
Airport Soekarno-Hatta International Airport (WIII)

Arrival

Time 2026-04-29 14:40
Airport Sultan Syarif Kasim II International Airport / Roesmin Nurjadin AFB (WIBB)
Time Latitude Longitude Altitude Speed Heading
2026-04-29 13:03 -6.11644 106.66688 -107 ft 0 kts 158°
2026-04-29 13:13 -6.11641 106.66687 -107 ft 3 kts 158°
2026-04-29 13:13 -6.11616 106.66677 -9 ft 4 kts 162°
2026-04-29 13:13 -6.11590 106.66670 36 ft 4 kts 171°
2026-04-29 13:14 -6.11564 106.66669 36 ft 4 kts 199°
2026-04-29 13:14 -6.11550 106.66679 36 ft 0 kts 248°
2026-04-29 13:16 -6.11551 106.66678 36 ft 1 kts 248°
2026-04-29 13:17 -6.11561 106.66654 35 ft 8 kts 247°
2026-04-29 13:17 -6.11593 106.66576 37 ft 16 kts 248°
2026-04-29 13:17 -6.11640 106.66449 37 ft 18 kts 261°
2026-04-29 13:17 -6.11563 106.66374 37 ft 17 kts 338°
2026-04-29 13:18 -6.11441 106.66325 37 ft 20 kts 338°
2026-04-29 13:18 -6.11349 106.66231 37 ft 21 kts 256°
2026-04-29 13:18 -6.11407 106.66090 37 ft 23 kts 247°
2026-04-29 13:18 -6.11471 106.65930 34 ft 26 kts 249°
2026-04-29 13:19 -6.11543 106.65751 36 ft 29 kts 247°
2026-04-29 13:19 -6.11618 106.65558 36 ft 31 kts 249°
2026-04-29 13:19 -6.11701 106.65354 37 ft 32 kts 248°
2026-04-29 13:19 -6.11787 106.65136 35 ft 34 kts 248°
2026-04-29 13:20 -6.11877 106.64909 36 ft 36 kts 248°
2026-04-29 13:20 -6.11971 106.64674 38 ft 37 kts 248°
2026-04-29 13:20 -6.12070 106.64428 37 ft 39 kts 248°
2026-04-29 13:20 -6.12169 106.64181 37 ft 31 kts 249°
2026-04-29 13:21 -6.12241 106.64000 38 ft 27 kts 246°
2026-04-29 13:21 -6.12173 106.63883 38 ft 18 kts
2026-04-29 13:21 -6.12067 106.63946 37 ft 16 kts 60°
2026-04-29 13:21 -6.12051 106.63987 37 ft 0 kts 69°
2026-04-29 13:22 -6.12033 106.64033 37 ft 38 kts 69°
2026-04-29 13:22 -6.11825 106.64552 37 ft 113 kts 68°
2026-04-29 13:22 -6.11470 106.65446 47 ft 162 kts 68°
2026-04-29 13:22 -6.11032 106.66592 827 ft 177 kts 69°
2026-04-29 13:23 -6.10595 106.67714 1373 ft 171 kts 69°
2026-04-29 13:23 -6.10012 106.68729 1474 ft 171 kts 39°
2026-04-29 13:23 -6.08919 106.69211 1768 ft 180 kts 23°
2026-04-29 13:23 -6.07676 106.69772 2059 ft 210 kts 27°
2026-04-29 13:24 -6.06297 106.70485 2310 ft 233 kts 30°
2026-04-29 13:24 -6.04816 106.71340 2560 ft 256 kts 32°
2026-04-29 13:24 -6.03293 106.72287 3282 ft 261 kts 34°
2026-04-29 13:24 -6.01761 106.73273 4178 ft 261 kts 34°
2026-04-29 13:25 -6.00217 106.74249 5018 ft 266 kts 28°
2026-04-29 13:25 -5.96562 106.74200 6616 ft 280 kts 333°
2026-04-29 13:25 -5.95131 106.72856 7374 ft 288 kts 304°
2026-04-29 13:26 -5.94216 106.71056 8145 ft 292 kts 296°
2026-04-29 13:26 -5.93378 106.69181 8885 ft 296 kts 296°
2026-04-29 13:26 -5.92529 106.67281 9648 ft 299 kts 296°
2026-04-29 13:26 -5.91658 106.65370 10324 ft 305 kts 296°
2026-04-29 13:27 -5.90734 106.63368 10527 ft 328 kts 296°
2026-04-29 13:27 -5.89739 106.61227 10689 ft 349 kts 296°
2026-04-29 13:27 -5.88684 106.58963 10981 ft 364 kts 296°
2026-04-29 13:27 -5.87601 106.56639 11508 ft 369 kts 296°
2026-04-29 13:28 -5.86509 106.54296 12155 ft 372 kts 296°
2026-04-29 13:28 -5.85409 106.51934 12793 ft 375 kts 296°
2026-04-29 13:28 -5.84299 106.49551 13437 ft 379 kts 296°
2026-04-29 13:28 -5.83176 106.47144 14008 ft 382 kts 296°
2026-04-29 13:29 -5.82043 106.44713 14577 ft 386 kts 296°
2026-04-29 13:29 -5.80901 106.42255 15141 ft 390 kts 296°
2026-04-29 13:29 -5.79749 106.39772 15713 ft 394 kts 296°
2026-04-29 13:29 -5.78590 106.37273 16268 ft 397 kts 296°
2026-04-29 13:30 -5.77417 106.34745 16819 ft 401 kts 296°
2026-04-29 13:30 -5.76235 106.32197 17360 ft 405 kts 296°
2026-04-29 13:30 -5.75037 106.29619 17883 ft 408 kts 296°
2026-04-29 13:30 -5.73657 106.27124 18335 ft 410 kts 309°
2026-04-29 13:31 -5.71648 106.25162 18790 ft 409 kts 323°
2026-04-29 13:31 -5.69403 106.23383 19259 ft 412 kts 324°
2026-04-29 13:31 -5.67126 106.21617 19674 ft 415 kts 324°
2026-04-29 13:31 -5.64831 106.19833 20096 ft 419 kts 323°
2026-04-29 13:32 -5.62524 106.18025 20525 ft 422 kts 323°
2026-04-29 13:32 -5.60210 106.16195 20948 ft 425 kts 323°
2026-04-29 13:32 -5.57888 106.14349 21357 ft 428 kts 323°
2026-04-29 13:32 -5.55549 106.12484 21747 ft 431 kts 323°
2026-04-29 13:33 -5.53194 106.10604 22138 ft 434 kts 323°
2026-04-29 13:33 -5.50823 106.08712 22538 ft 436 kts 323°
2026-04-29 13:33 -5.48443 106.06813 22922 ft 439 kts 323°
2026-04-29 13:33 -5.46042 106.04898 23039 ft 445 kts 323°
2026-04-29 13:34 -5.43613 106.02962 23042 ft 444 kts 323°
2026-04-29 13:34 -5.41207 106.01046 23043 ft 440 kts 323°
2026-04-29 13:34 -5.38807 105.99141 23048 ft 441 kts 323°
2026-04-29 13:34 -5.36399 105.97233 23049 ft 441 kts 323°
2026-04-29 13:35 -5.33985 105.95321 23051 ft 442 kts 323°
2026-04-29 13:35 -5.31573 105.93410 23050 ft 442 kts 323°
2026-04-29 13:35 -5.29160 105.91497 23049 ft 442 kts 323°
2026-04-29 13:35 -5.26750 105.89585 23045 ft 442 kts 323°
2026-04-29 13:36 -5.24338 105.87672 23040 ft 442 kts 323°
2026-04-29 13:36 -5.21926 105.85760 23043 ft 441 kts 323°
2026-04-29 13:36 -5.19523 105.83854 23044 ft 441 kts 323°
2026-04-29 13:36 -5.17094 105.81965 23084 ft 444 kts 324°
2026-04-29 13:37 -5.14608 105.80159 23341 ft 448 kts 326°
2026-04-29 13:37 -5.12054 105.78363 23708 ft 449 kts 326°
2026-04-29 13:37 -5.09492 105.76578 24094 ft 448 kts 326°
2026-04-29 13:37 -5.06902 105.74769 24469 ft 448 kts 326°
2026-04-29 13:38 -5.04374 105.72993 24799 ft 449 kts 326°
2026-04-29 13:38 -5.01812 105.71184 25112 ft 451 kts 326°
2026-04-29 13:38 -4.99247 105.69366 25409 ft 453 kts 326°
2026-04-29 13:38 -4.96668 105.67533 25696 ft 455 kts 326°
2026-04-29 13:39 -4.94077 105.65690 25979 ft 457 kts 325°
2026-04-29 13:39 -4.91476 105.63839 26271 ft 459 kts 325°
2026-04-29 13:39 -4.88868 105.61983 26557 ft 461 kts 325°
2026-04-29 13:39 -4.86244 105.60117 26844 ft 462 kts 325°
2026-04-29 13:40 -4.84501 105.58877 27031 ft 464 kts 325°
2026-04-29 13:40 -4.81866 105.57003 27304 ft 465 kts 325°
2026-04-29 13:40 -4.79220 105.55122 27569 ft 467 kts 325°
2026-04-29 13:40 -4.76568 105.53237 27830 ft 469 kts 325°
2026-04-29 13:41 -4.73898 105.51339 28079 ft 470 kts 325°
2026-04-29 13:41 -4.71226 105.49440 28325 ft 472 kts 325°
2026-04-29 13:41 -4.68541 105.47532 28570 ft 474 kts 325°
2026-04-29 13:41 -4.65845 105.45616 28805 ft 475 kts 325°
2026-04-29 13:42 -4.63139 105.43694 29046 ft 477 kts 325°
2026-04-29 13:42 -4.60428 105.41768 29275 ft 479 kts 325°
2026-04-29 13:42 -4.57707 105.39835 29488 ft 480 kts 325°
2026-04-29 13:42 -4.54972 105.37893 29705 ft 482 kts 325°
2026-04-29 13:43 -4.52269 105.35972 29909 ft 483 kts 325°
2026-04-29 13:43 -4.49520 105.34020 30094 ft 485 kts 325°
2026-04-29 13:43 -4.46761 105.32062 30246 ft 486 kts 325°
2026-04-29 13:43 -4.43996 105.30098 30460 ft 487 kts 325°
2026-04-29 13:44 -4.41228 105.28133 30724 ft 486 kts 325°
2026-04-29 13:44 -4.38474 105.26178 31022 ft 484 kts 325°
2026-04-29 13:44 -4.35726 105.24228 31284 ft 484 kts 325°
2026-04-29 13:44 -4.32981 105.22279 31527 ft 484 kts 325°
2026-04-29 13:45 -4.30234 105.20329 31772 ft 484 kts 325°
2026-04-29 13:45 -4.27521 105.18404 32042 ft 483 kts 325°
2026-04-29 13:45 -4.24745 105.16434 32325 ft 483 kts 326°
2026-04-29 13:45 -4.22004 105.14489 32596 ft 482 kts 326°
2026-04-29 13:46 -4.19269 105.12548 32867 ft 482 kts 326°
2026-04-29 13:46 -4.16528 105.10604 33148 ft 482 kts 326°
2026-04-29 13:46 -4.13796 105.08665 33439 ft 481 kts 326°
2026-04-29 13:46 -4.11066 105.06729 33711 ft 481 kts 326°
2026-04-29 13:47 -4.08465 105.04678 33964 ft 482 kts 319°
2026-04-29 13:47 -4.05990 105.02405 34233 ft 481 kts 318°
2026-04-29 13:47 -4.03559 105.00106 34528 ft 480 kts 317°
2026-04-29 13:47 -4.01146 104.97803 34811 ft 479 kts 317°
2026-04-29 13:48 -3.98734 104.95504 35078 ft 478 kts 317°
2026-04-29 13:48 -3.96324 104.93219 35343 ft 477 kts 317°
2026-04-29 13:48 -3.93909 104.90942 35604 ft 476 kts 317°
2026-04-29 13:48 -3.91496 104.88676 35868 ft 475 kts 317°
2026-04-29 13:49 -3.86636 104.84128 35896 ft 478 kts 318°
2026-04-29 13:49 -3.81788 104.79595 35881 ft 474 kts 318°
2026-04-29 13:50 -3.76978 104.75098 35885 ft 472 kts 318°
2026-04-29 13:50 -3.72182 104.70613 35899 ft 471 kts 318°
2026-04-29 13:51 -3.67430 104.66170 35893 ft 470 kts 318°
2026-04-29 13:51 -3.62638 104.61690 35912 ft 473 kts 318°
2026-04-29 13:52 -3.57791 104.57160 35908 ft 479 kts 318°
2026-04-29 13:52 -3.52906 104.52593 35901 ft 480 kts 318°
2026-04-29 13:53 -3.48018 104.48025 35897 ft 481 kts 318°
2026-04-29 13:53 -3.43128 104.43456 35902 ft 481 kts 318°
2026-04-29 13:54 -3.38245 104.38894 35906 ft 480 kts 318°
2026-04-29 13:54 -3.33358 104.34328 35904 ft 480 kts 318°
2026-04-29 13:55 -3.28482 104.29775 35904 ft 479 kts 318°
2026-04-29 13:55 -3.23644 104.25257 35902 ft 478 kts 318°
2026-04-29 13:56 -3.18775 104.20710 35906 ft 478 kts 318°
2026-04-29 13:56 -3.13908 104.16167 35906 ft 478 kts 318°
2026-04-29 13:57 -3.09050 104.11632 35903 ft 478 kts 318°
2026-04-29 13:57 -3.04189 104.07095 35909 ft 478 kts 318°
2026-04-29 13:58 -2.99330 104.02561 35914 ft 478 kts 318°
2026-04-29 13:58 -2.94464 103.98020 35912 ft 478 kts 318°
2026-04-29 13:59 -2.89591 103.93474 35900 ft 479 kts 318°
2026-04-29 13:59 -2.84720 103.88929 35910 ft 479 kts 318°
2026-04-29 14:00 -2.79865 103.84401 35912 ft 480 kts 318°
2026-04-29 14:00 -2.74977 103.79842 35907 ft 480 kts 318°
2026-04-29 14:01 -2.70086 103.75281 35912 ft 481 kts 318°
2026-04-29 14:01 -2.65185 103.70711 35914 ft 481 kts 318°
2026-04-29 14:02 -2.60281 103.66139 35912 ft 482 kts 318°
2026-04-29 14:02 -2.55369 103.61560 35906 ft 482 kts 318°
2026-04-29 14:03 -2.50492 103.57013 35905 ft 483 kts 318°
2026-04-29 14:03 -2.45578 103.52432 35904 ft 483 kts 318°
2026-04-29 14:04 -2.40665 103.47853 35907 ft 483 kts 318°
2026-04-29 14:04 -2.35752 103.43273 35912 ft 482 kts 318°
2026-04-29 14:05 -2.30837 103.38692 35912 ft 482 kts 318°
2026-04-29 14:05 -2.25939 103.34121 35907 ft 481 kts 318°
2026-04-29 14:06 -2.21043 103.29548 35914 ft 481 kts 318°
2026-04-29 14:06 -2.16191 103.25015 35912 ft 480 kts 318°
2026-04-29 14:07 -2.11306 103.20454 35910 ft 479 kts 318°
2026-04-29 14:07 -2.06432 103.15903 35914 ft 479 kts 318°
2026-04-29 14:08 -2.01565 103.11360 35915 ft 478 kts 318°
2026-04-29 14:08 -1.96706 103.06824 35920 ft 478 kts 318°
2026-04-29 14:09 -1.91852 103.02293 35910 ft 477 kts 318°
2026-04-29 14:09 -1.87001 102.97765 35914 ft 477 kts 318°
2026-04-29 14:10 -1.82154 102.93242 35913 ft 476 kts 318°
2026-04-29 14:10 -1.77309 102.88720 35923 ft 476 kts 318°
2026-04-29 14:11 -1.72470 102.84204 35918 ft 476 kts 318°
2026-04-29 14:11 -1.67624 102.79682 35917 ft 477 kts 318°
2026-04-29 14:12 -1.62772 102.75154 35923 ft 478 kts 318°
2026-04-29 14:12 -1.57927 102.70658 35923 ft 478 kts 321°
2026-04-29 14:13 -1.55152 102.68868 35916 ft 475 kts 338°
2026-04-29 14:13 -1.52036 102.67803 35943 ft 472 kts 345°
2026-04-29 14:13 -1.45706 102.66014 35918 ft 473 kts 346°
2026-04-29 14:14 -1.39371 102.64229 35922 ft 473 kts 345°
2026-04-29 14:14 -1.33045 102.62390 35926 ft 474 kts 345°
2026-04-29 14:15 -1.26725 102.60526 35922 ft 473 kts 345°
2026-04-29 14:15 -1.20421 102.58662 35922 ft 472 kts 345°
2026-04-29 14:16 -1.14146 102.56810 35497 ft 478 kts 345°
2026-04-29 14:16 -1.10943 102.55866 34868 ft 478 kts 345°
2026-04-29 14:16 -1.07751 102.54925 34175 ft 479 kts 345°
2026-04-29 14:17 -1.04548 102.53980 33346 ft 481 kts 346°
2026-04-29 14:17 -1.01330 102.53031 32538 ft 482 kts 346°
2026-04-29 14:17 -0.98105 102.52080 31726 ft 483 kts 346°
2026-04-29 14:17 -0.94876 102.51128 30862 ft 486 kts 346°
2026-04-29 14:18 -0.91623 102.50169 29985 ft 488 kts 346°
2026-04-29 14:18 -0.88351 102.49205 28920 ft 491 kts 346°
2026-04-29 14:18 -0.85092 102.48244 28225 ft 485 kts 346°
2026-04-29 14:18 -0.81906 102.47303 27539 ft 480 kts 346°
2026-04-29 14:19 -0.78726 102.46364 26869 ft 475 kts 346°
2026-04-29 14:19 -0.75566 102.45432 26219 ft 470 kts 346°
2026-04-29 14:19 -0.72450 102.44513 25540 ft 466 kts 346°
2026-04-29 14:19 -0.69346 102.43598 24879 ft 463 kts 345°
2026-04-29 14:20 -0.66268 102.42691 24213 ft 459 kts 345°
2026-04-29 14:20 -0.63205 102.41788 23554 ft 457 kts 345°
2026-04-29 14:20 -0.60169 102.40893 22800 ft 454 kts 345°
2026-04-29 14:20 -0.57169 102.39951 22116 ft 450 kts 339°
2026-04-29 14:21 -0.54484 102.38372 21561 ft 446 kts 321°
2026-04-29 14:21 -0.52263 102.36305 21121 ft 438 kts 316°
2026-04-29 14:21 -0.50118 102.34173 20648 ft 433 kts 316°
2026-04-29 14:21 -0.47978 102.32028 20171 ft 427 kts 316°
2026-04-29 14:22 -0.45913 102.29975 19734 ft 424 kts 316°
2026-04-29 14:22 -0.43804 102.27899 19254 ft 427 kts 316°
2026-04-29 14:22 -0.41678 102.25824 18785 ft 426 kts 316°
2026-04-29 14:22 -0.39559 102.23766 18320 ft 421 kts 316°
2026-04-29 14:23 -0.37470 102.21740 17818 ft 417 kts 316°
2026-04-29 14:23 -0.35401 102.19733 17347 ft 412 kts 316°
2026-04-29 14:23 -0.33357 102.17750 16882 ft 408 kts 316°
2026-04-29 14:23 -0.31334 102.15787 16451 ft 404 kts 316°
2026-04-29 14:24 -0.29326 102.13840 16015 ft 401 kts 316°
2026-04-29 14:24 -0.27330 102.11904 15597 ft 398 kts 316°
2026-04-29 14:24 -0.25347 102.09986 15188 ft 396 kts 316°
2026-04-29 14:24 -0.24039 102.08721 14920 ft 395 kts 316°
2026-04-29 14:25 -0.21402 102.06171 14365 ft 393 kts 316°
2026-04-29 14:25 -0.19464 102.04296 13951 ft 392 kts 316°
2026-04-29 14:25 -0.17510 102.02405 13520 ft 390 kts 316°
2026-04-29 14:25 -0.15565 102.00523 13082 ft 387 kts 316°
2026-04-29 14:26 -0.13637 101.98657 12671 ft 384 kts 316°
2026-04-29 14:26 -0.11727 101.96807 12268 ft 381 kts 316°
2026-04-29 14:26 -0.09840 101.94982 11871 ft 374 kts 316°
2026-04-29 14:26 -0.07991 101.93192 11528 ft 365 kts 316°
2026-04-29 14:27 -0.06193 101.91450 11191 ft 357 kts 316°
2026-04-29 14:27 -0.04430 101.89741 10836 ft 350 kts 316°
2026-04-29 14:27 -0.02695 101.88059 10472 ft 344 kts 316°
2026-04-29 14:28 0.00691 101.84777 9928 ft 329 kts 316°
2026-04-29 14:28 0.02296 101.83222 9929 ft 313 kts 316°
2026-04-29 14:28 0.03826 101.81738 9860 ft 301 kts 316°
2026-04-29 14:28 0.04808 101.80787 9811 ft 294 kts 316°
2026-04-29 14:29 0.06733 101.78922 9592 ft 284 kts 316°
2026-04-29 14:29 0.07670 101.78013 9393 ft 283 kts 316°
2026-04-29 14:29 0.09018 101.76590 9070 ft 282 kts 304°
2026-04-29 14:29 0.09883 101.74835 8764 ft 281 kts 293°
2026-04-29 14:30 0.10630 101.73037 8468 ft 280 kts 293°
2026-04-29 14:30 0.11370 101.71240 8156 ft 279 kts 293°
2026-04-29 14:30 0.12110 101.69454 7870 ft 278 kts 293°
2026-04-29 14:30 0.12853 101.67673 7591 ft 276 kts 293°
2026-04-29 14:31 0.13585 101.65931 7313 ft 275 kts 293°
2026-04-29 14:31 0.14324 101.64177 7039 ft 273 kts 294°
2026-04-29 14:31 0.15063 101.62430 6767 ft 272 kts 294°
2026-04-29 14:31 0.15797 101.60694 6493 ft 270 kts 294°
2026-04-29 14:32 0.16529 101.58966 6212 ft 269 kts 294°
2026-04-29 14:32 0.17255 101.57252 6033 ft 264 kts 294°
2026-04-29 14:32 0.17956 101.55600 5991 ft 253 kts 294°
2026-04-29 14:32 0.18624 101.54022 5975 ft 241 kts 294°
2026-04-29 14:33 0.19179 101.52502 5978 ft 225 kts 280°
2026-04-29 14:33 0.19267 101.51007 5991 ft 207 kts 272°
2026-04-29 14:33 0.19316 101.49645 5980 ft 190 kts 273°
2026-04-29 14:33 0.19373 101.48330 5982 ft 185 kts 274°
2026-04-29 14:34 0.19432 101.47060 5981 ft 185 kts 274°
2026-04-29 14:34 0.19500 101.45786 5877 ft 182 kts 279°
2026-04-29 14:34 0.20071 101.44712 5523 ft 179 kts 326°
2026-04-29 14:34 0.21238 101.44352 5191 ft 177 kts 352°
2026-04-29 14:35 0.22460 101.44162 4864 ft 178 kts 353°
2026-04-29 14:35 0.23690 101.44026 4571 ft 177 kts 354°
2026-04-29 14:35 0.24922 101.43926 4265 ft 177 kts 358°
2026-04-29 14:35 0.26154 101.43903 3972 ft 176 kts
2026-04-29 14:36 0.27377 101.43920 3679 ft 176 kts
2026-04-29 14:36 0.28599 101.43950 3390 ft 175 kts
2026-04-29 14:36 0.29800 101.43984 3115 ft 174 kts
2026-04-29 14:36 0.31024 101.44019 3056 ft 176 kts
2026-04-29 14:37 0.32230 101.44054 2900 ft 171 kts
2026-04-29 14:37 0.33427 101.44088 2586 ft 173 kts
2026-04-29 14:37 0.34633 101.44123 2278 ft 173 kts
2026-04-29 14:37 0.35799 101.44156 2063 ft 160 kts
2026-04-29 14:38 0.36869 101.44187 1762 ft 152 kts
2026-04-29 14:38 0.37914 101.44217 1485 ft 149 kts
2026-04-29 14:38 0.38957 101.44247 1230 ft 152 kts
2026-04-29 14:38 0.39998 101.44277 1019 ft 150 kts
2026-04-29 14:39 0.41047 101.44307 842 ft 151 kts
2026-04-29 14:39 0.42099 101.44337 658 ft 152 kts
2026-04-29 14:39 0.43147 101.44368 469 ft 150 kts
2026-04-29 14:39 0.44194 101.44398 269 ft 149 kts
2026-04-29 14:40 0.45228 101.44430 133 ft 144 kts
2026-04-29 14:40 0.46019 101.44450 126 ft 82 kts
2026-04-29 14:40 0.46370 101.44472 125 ft 22 kts 36°
2026-04-29 14:40 0.46382 101.44511 124 ft 5 kts 91°
2026-04-29 14:41 0.46381 101.44557 125 ft 9 kts 92°
2026-04-29 14:41 0.46401 101.44598 125 ft 8 kts 64°
2026-04-29 14:41 0.46404 101.44655 127 ft 5 kts 92°
2026-04-29 14:41 0.46404 101.44672 127 ft 2 kts 91°
2026-04-29 14:42 0.46404 101.44676 126 ft 0 kts 91°